Helicity
32 26 25 22 20 16 14 10 8 6 8 7 5 1 -1 2 8 12 16 22 20 9 -4 -8 25 61 65 46 72 132 126 122 133 126 115 133 155 164 163 138 156 154 127 117 101 83 102
21 20 17 13 8 4 2 3 3 2 -2 -5 -7 -6 -3 1 4 5 14 27 37 29 14 -1 50 84 87 42 117 132 148 138 118 135 126 148 119 127 140 152 166 165 122 92 88 86 134
21 17 13 12 8 3 -1 0 0 -1 -4 -2 0 -2 -6 -7 -3 9 15 23 21 11 10 37 78 133 135 78 181 174 153 133 130 135 146 134 148 159 162 141 154 150 105 87 103 132 149
26 21 20 17 13 10 8 8 4 0 4 4 7 11 12 8 9 10 23 26 32 15 32 90 125 162 103 161 169 188 162 179 153 145 162 160 167 184 180 194 199 133 113 89 98 91 96
40 34 30 26 22 17 14 11 10 15 23 28 32 31 35 33 23 10 21 16 2 67 116 139 167 161 43 128 120 84 105 113 132 143 156 176 209 231 222 233 181 171 154 87 72 59 119
45 41 30 24 21 15 14 18 24 28 33 35 32 30 32 30 30 18 9 1 40 123 141 124 169 151 109 144 146 151 147 187 214 222 220 207 246 230 278 289 208 146 148 105 100 90 114
53 47 43 45 39 34 26 18 21 27 35 45 41 34 34 48 47 55 19 20 96 120 124 123 159 169 210 202 167 226 227 262 282 284 252 254 330 305 208 221 240 196 181 173 201 147 75
50 54 48 48 43 39 35 35 38 38 33 26 30 27 35 48 96 65 49 66 57 77 51 84 129 155 136 181 245 219 254 259 301 308 351 405 385 201 212 224 204 237 236 166 143 115 82
50 59 55 53 51 52 50 50 46 39 37 24 19 21 24 30 65 72 43 64 54 67 94 74 85 111 139 119 114 116 192 246 257 273 279 312 265 209 234 249 257 270 211 204 103 162 106
49 50 51 53 60 67 70 74 79 70 55 37 21 16 23 20 73 38 71 69 60 51 65 17 73 67 68 69 87 60 55 129 167 118 171 156 152 254 257 222 261 236 152 153 181 192 136
57 56 55 56 61 72 76 79 72 67 45 29 28 27 34 48 65 71 60 58 51 70 104 148 108 44 84 141 126 119 114 141 130 136 181 128 131 136 125 93 192 123 152 155 168 174 178
48 54 66 67 66 62 54 60 46 46 43 35 25 34 36 71 88 62 53 60 100 130 66 191 209 182 138 143 160 159 182 185 156 161 167 90 142 155 136 130 152 177 223 214 183 182 160
62 70 64 54 44 41 37 46 39 42 43 40 31 37 53 85 79 67 75 145 171 199 217 208 167 228 248 217 237 228 242 268 223 218 176 161 154 206 208 204 212 251 285 233 188 203 156
71 67 59 48 41 37 31 40 40 45 44 45 41 43 88 102 75 97 173 231 223 196 201 303 263 233 216 249 251 281 305 292 258 305 265 191 215 168 208 189 188 217 257 303 234 221 186
70 66 57 43 38 36 41 46 50 50 49 54 55 73 99 98 114 144 250 306 183 179 232 249 208 208 248 239 274 282 239 262 250 246 285 253 232 200 198 216 222 230 236 186 262 242 251
64 58 53 54 54 59 60 59 62 58 52 60 71 84 75 124 134 208 293 304 280 255 257 232 229 238 245 269 269 271 228 214 233 216 241 272 280 243 265 238 261 237 214 328 369 341 313
55 62 57 60 59 77 82 82 76 76 57 91 83 107 139 167 135 240 315 267 283 229 207 210 263 279 272 279 264 263 290 290 254 234 221 234 273 289 289 304 252 281 327 344 342 371 401
50 54 52 46 67 69 78 101 82 53 89 166 130 138 95 185 335 341 351 302 289 285 229 244 248 227 237 222 217 236 245 258 251 211 274 282 292 292 233 226 234 253 263 244 319 359 347
60 53 67 63 79 91 100 93 72 67 85 166 193 143 65 134 217 274 323 293 228 215 181 217 254 180 176 163 195 133 175 184 152 204 205 207 286 345 298 258 158 158 203 241 248 247 281
57 60 58 62 67 74 68 66 53 23 24 167 212 250 200 117 119 138 141 164 188 135 164 177 194 184 188 213 195 253 252 173 133 151 143 151 223 257 252 206 197 188 179 117 107 192 149
53 55 58 64 55 56 53 64 57 37 26 135 316 356 293 312 215 140 138 164 126 132 151 151 205 210 178 228 248 217 154 159 144 189 140 117 211 184 173 155 157 151 122 125 124 130 160
48 53 45 40 41 48 81 75 37 12 39 149 317 327 253 256 276 177 156 150 83 91 151 135 127 95 136 197 141 183 104 13 9 101 119 194 230 179 190 145 122 108 104 109 95 104 118
39 32 23 23 28 35 36 32 13 0 51 119 215 255 232 162 246 295 273 162 82 92 84 59 66 53 77 56 64 62 66 94 46 54 52 46 100 78 160 128 148 165 153 159 247 269 214
26 15 3 4 12 24 8 19 15 12 50 53 93 168 244 229 215 210 226 152 86 54 97 31 49 69 91 32 92 81 91 99 87 57 77 73 111 127 130 103 164 192 182 146 255 231 210
-2 9 6 -3 5 5 17 17 14 21 9 64 55 85 176 235 184 204 193 147 131 151 124 128 20 133 81 52 48 72 103 116 65 54 79 74 101 138 164 171 174 142 212 156 143 152 144
27 5 0 -5 0 -2 7 9 15 14 28 74 87 87 38 92 99 157 132 145 142 136 95 104 84 52 132 78 44 86 109 93 84 93 57 39 48 98 124 134 129 147 197 213 192 126 172
-10 -10 -9 -10 -2 8 15 25 25 29 36 77 109 120 93 49 89 106 71 72 145 166 143 119 62 67 87 75 101 146 99 120 122 90 71 107 130 85 92 115 185 197 174 181 115 123 182
-14 -5 0 8 19 25 33 34 35 30 24 55 100 118 88 64 121 142 85 126 161 116 106 98 60 53 53 7 11 87 71 19 96 142 124 121 142 156 125 142 148 298 192 158 157 111 147
3 5 6 10 16 19 25 26 25 24 14 56 91 49 49 75 65 120 175 158 99 105 32 122 138 67 85 128 19 81 89 117 129 138 256 171 170 213 208 165 123 224 262 246 206 174 193
Wind_Speed
45 46 47 49 51 53 56 58 60 62 63 65 66 68 70 72 74 76 78 78 78 77 77 77 70 47 40 41 33 26 20 19 20 20 20 19 21 24 27 30 33 29 35 32 29 31 29
48 49 50 52 53 55 58 61 63 65 66 66 68 70 72 75 78 81 83 84 83 83 81 80 57 42 35 36 35 23 20 23 24 23 23 22 26 25 35 35 33 39 40 42 40 36 32
53 55 56 59 61 63 64 65 68 69 70 72 75 77 80 82 85 88 91 90 88 88 87 73 46 39 36 26 40 28 23 28 27 26 27 26 27 27 30 40 42 46 55 57 43 42 32
58 60 63 65 66 68 70 72 74 76 78 80 82 85 88 90 93 95 97 97 94 92 78 53 35 37 36 40 37 29 28 31 30 29 30 28 28 33 35 40 47 48 47 47 46 37 41
61 64 66 68 70 72 74 76 78 80 82 85 87 90 94 96 97 96 95 90 88 61 47 35 38 38 36 36 32 26 23 29 26 29 30 28 30 34 36 38 46 41 47 44 61 41 47
64 66 69 71 73 75 77 79 81 83 85 87 89 92 95 98 100 98 91 85 58 43 40 38 40 39 29 32 32 31 28 25 33 27 33 33 35 34 34 36 47 44 47 51 55 53 51
65 68 71 73 76 78 80 82 84 86 87 89 91 94 97 100 101 94 83 62 58 46 45 33 35 35 40 43 34 33 30 29 35 36 37 34 40 39 35 35 44 52 53 59 61 60 70
66 69 71 75 77 80 83 85 87 88 90 91 92 93 96 98 99 77 64 56 53 51 63 45 37 37 39 41 45 34 26 34 35 41 35 45 53 38 44 41 45 50 55 56 70 67 55
66 69 72 76 80 82 84 84 87 88 89 91 91 92 94 96 88 65 59 58 62 47 60 58 40 39 38 27 33 31 18 29 35 38 37 49 50 36 38 42 45 50 52 55 58 62 61
68 71 72 76 80 83 84 84 85 87 89 90 91 90 90 94 57 71 55 63 64 44 66 51 41 36 32 32 38 30 18 27 31 37 34 43 40 40 43 52 45 64 46 50 54 55 69
67 71 74 76 77 81 82 86 84 84 87 88 89 88 83 80 63 64 56 64 54 47 79 46 39 32 34 37 38 35 27 29 39 39 35 43 40 32 36 38 30 48 35 41 49 56 69
66 69 73 75 75 76 79 83 82 81 83 84 87 85 83 64 58 48 57 58 43 60 72 49 45 45 44 39 41 39 37 34 37 44 45 48 43 42 43 42 33 36 43 51 56 58 79
65 67 70 71 74 76 78 81 83 84 86 86 87 88 81 55 58 55 57 46 62 67 52 56 52 54 57 53 52 46 48 47 51 63 65 58 55 48 44 52 44 46 53 72 75 71 81
69 72 74 73 73 75 76 79 81 84 87 88 89 87 63 52 50 54 48 49 74 62 63 58 60 64 66 55 57 56 59 64 52 56 69 76 83 52 44 50 55 50 53 66 88 85 74
72 73 74 76 78 75 77 78 78 82 87 91 90 71 63 50 48 46 43 66 73 68 61 67 69 78 75 63 61 65 67 70 60 49 67 70 76 52 47 47 45 51 58 54 70 69 80
76 77 78 79 79 78 80 78 81 80 83 88 83 73 61 52 50 46 55 73 69 60 64 66 81 69 84 71 71 67 67 59 60 52 51 63 82 59 52 49 48 53 46 61 60 81 87
79 79 80 80 80 80 79 80 81 79 78 79 73 77 54 61 49 53 76 76 75 67 66 70 77 79 77 80 76 77 74 64 56 55 52 57 67 69 58 57 61 61 65 62 64 70 85
79 80 81 82 82 85 80 81 81 80 79 69 72 82 56 60 71 67 80 74 71 74 68 72 72 77 81 78 84 81 83 71 57 53 63 55 64 84 75 58 55 56 63 62 75 78 72
82 86 86 87 84 83 83 82 83 83 76 70 77 79 63 53 82 84 79 82 80 84 79 74 75 69 66 76 82 72 71 55 50 50 56 49 64 82 76 60 53 58 54 53 57 63 77
87 88 85 85 87 85 85 86 85 85 74 64 73 85 76 66 63 75 87 92 88 75 80 76 79 75 83 87 75 82 74 62 51 49 46 43 58 68 85 69 53 58 55 52 55 70 76
86 85 86 88 87 89 89 89 87 83 75 67 69 84 76 90 85 82 84 88 98 99 78 73 77 74 82 91 80 84 73 66 58 54 50 48 69 62 64 61 60 65 72 67 69 70 77
88 91 92 93 92 92 91 90 88 84 77 76 81 81 79 90 86 91 91 93 99 96 86 94 93 85 75 85 79 86 66 60 60 49 47 47 58 56 70 62 65 74 72 70 74 76 75
91 92 93 92 92 93 91 90 87 83 75 76 70 71 81 98 94 92 90 87 85 78 75 74 78 78 73 70 64 59 58 58 57 59 60 59 60 64 78 67 69 77 69 72 63 59 60
95 95 94 93 91 88 87 86 85 80 72 72 67 67 78 97 85 83 75 71 77 75 79 73 70 75 70 67 59 60 63 63 64 68 62 64 63 64 76 64 79 60 53 47 45 46 40
94 93 92 92 91 85 82 80 76 76 72 72 64 59 66 77 63 66 63 67 67 70 69 70 77 65 61 58 60 60 63 59 61 56 57 56 60 63 64 65 64 59 52 50 48 45 39
93 92 91 89 86 80 77 73 69 69 66 63 56 42 50 67 54 52 53 55 60 65 58 63 48 40 40 54 54 54 52 53 53 54 41 39 39 50 50 61 65 52 41 42 34 44 42
89 88 86 82 78 76 74 65 63 62 59 58 52 40 42 54 49 51 56 62 52 47 50 52 52 44 34 41 42 40 45 41 53 56 50 44 43 45 55 58 52 47 48 37 39 44 46
84 82 80 77 74 72 68 64 57 47 39 43 33 28 12 25 32 30 42 45 48 47 49 45 58 39 31 42 44 46 44 34 44 46 47 44 50 49 43 48 53 54 32 32 37 38 43
79 77 75 74 72 68 57 44 38 30 26 37 30 49 53 39 52 45 49 46 46 52 64 38 46 60 48 36 30 46 45 43 42 52 51 44 42 40 38 32 27 38 31 37 42 44 51
Wind_Direction
330 329 327 327 325 324 323 322 322 320 318 316 315 313 311 310 309 308 305 302 299 298 300 301 319 338 342 334 329 346 356 354 349 344 335 333 326 323 317 322 320 309 314 317 316 317 316
334 330 326 324 321 320 320 320 319 319 317 314 312 311 310 309 307 306 305 301 297 297 298 299 325 335 339 324 337 344 343 338 333 331 327 323 321 318 318 316 314 321 318 316 319 316 316
334 332 329 328 326 324 322 321 321 319 318 317 316 315 314 311 309 308 305 300 295 297 297 313 326 329 324 304 323 327 327 323 322 321 319 318 318 316 323 315 315 315 311 311 312 314 311
341 339 339 336 332 330 328 328 326 325 324 322 321 319 317 314 311 308 305 300 297 296 308 322 329 327 317 323 324 319 318 319 320 318 319 321 317 312 310 315 314 312 314 312 317 323 321
343 342 340 337 335 332 331 331 329 328 328 328 327 326 324 320 314 309 303 296 294 328 331 335 328 324 322 330 328 325 323 322 323 322 320 322 315 308 311 307 309 312 305 307 309 315 314
345 343 342 340 338 334 332 332 331 331 330 329 328 328 327 325 321 313 306 300 336 344 343 336 327 327 326 331 331 330 322 321 318 318 317 314 313 305 307 299 294 303 305 307 306 311 308
350 348 344 342 340 337 334 332 331 330 330 330 329 329 328 325 323 320 329 343 342 345 343 336 329 319 321 324 327 323 320 314 313 307 296 301 295 283 278 279 297 301 299 298 303 304 304
350 348 346 343 340 339 335 332 331 329 328 327 327 330 329 327 323 339 348 351 350 340 330 331 316 309 309 311 312 311 315 303 299 291 300 299 283 278 295 290 287 293 295 294 304 304 303
352 350 348 344 340 338 338 338 334 331 330 327 326 328 329 330 327 346 347 348 342 347 332 332 340 338 339 346 330 324 312 314 307 299 291 288 304 309 291 291 290 291 289 298 299 307 305
353 350 349 346 342 341 339 339 339 336 333 332 329 327 330 331 346 339 342 342 343 352 330 336 346 351 355 351 339 346 344 334 324 315 308 306 303 296 298 295 291 294 295 295 300 305 301
355 351 348 347 346 342 341 339 339 339 336 334 332 331 334 338 339 339 341 338 346 349 320 340 345 360 348 337 338 337 347 328 317 319 320 319 322 316 306 305 302 303 309 305 304 300 302
353 351 347 346 347 347 345 343 341 342 340 338 335 334 333 344 342 344 341 340 349 329 317 330 336 334 334 332 328 331 328 330 328 313 307 303 312 312 307 313 304 313 309 308 305 301 295
350 349 346 345 344 344 343 343 340 339 338 337 333 330 332 342 337 341 339 341 326 317 332 324 326 326 322 318 318 316 312 308 307 308 305 309 302 302 300 299 300 296 300 298 297 294 293
348 346 344 342 340 341 341 339 338 337 336 334 333 329 337 337 336 337 339 332 313 319 317 324 322 318 312 316 312 310 307 302 299 302 303 301 300 299 302 294 297 290 286 289 292 292 294
344 343 342 339 338 338 338 339 338 336 334 332 331 337 335 337 337 337 332 314 314 317 320 318 317 311 310 311 310 310 304 301 302 294 295 300 300 306 304 304 298 298 289 295 292 294 292
340 339 338 336 335 335 334 334 334 334 334 334 336 335 333 336 335 330 318 310 312 316 317 316 309 310 306 308 307 308 306 309 306 303 300 301 298 299 299 300 300 296 301 294 292 290 289
338 338 337 336 334 334 333 333 332 333 333 335 336 331 335 332 330 320 309 309 312 313 312 309 307 304 304 304 302 301 302 306 306 304 305 302 297 298 301 295 293 294 291 293 293 289 287
338 337 335 334 332 331 331 330 329 329 330 332 329 322 330 330 316 313 308 310 314 312 312 307 305 301 300 302 301 298 296 296 308 306 300 301 299 293 294 300 301 297 292 291 287 289 288
335 332 332 331 331 331 330 329 328 327 327 326 321 319 325 325 309 307 307 307 308 307 306 307 305 304 306 303 302 300 300 309 310 305 303 304 296 295 298 303 303 296 298 297 295 294 287
332 331 332 331 330 329 328 327 325 324 323 322 318 314 317 316 313 310 309 307 305 307 305 303 300 302 299 297 296 298 300 307 307 303 304 304 291 291 290 297 303 298 298 298 298 292 292
333 332 331 330 329 327 326 325 324 322 321 317 312 309 309 306 305 305 306 305 304 303 305 309 303 304 302 297 299 299 302 304 303 302 298 294 293 291 292 294 295 294 292 292 291 291 289
331 330 329 328 327 326 325 324 323 321 319 311 307 309 309 303 302 302 303 303 302 304 303 302 299 301 300 296 298 298 298 303 305 310 307 304 298 299 293 293 293 292 292 292 291 292 290
331 329 328 327 327 327 327 326 324 322 323 313 310 307 303 302 300 300 300 305 306 311 309 306 302 301 299 300 302 297 300 300 297 298 297 297 298 299 295 298 296 292 292 293 295 298 297
331 330 329 328 327 327 326 326 327 326 323 316 317 314 306 301 301 299 304 306 307 308 310 309 311 305 305 309 303 298 302 299 297 292 288 290 291 292 295 298 292 300 307 306 303 305 312
335 334 333 332 331 329 330 329 329 330 330 322 318 318 317 310 308 305 305 307 311 312 307 308 307 312 310 304 305 305 304 306 305 300 297 288 288 292 293 293 299 299 302 302 299 302 319
341 340 338 337 337 337 336 336 336 337 337 334 331 322 319 319 324 322 321 316 316 320 321 319 324 336 327 308 304 301 303 308 311 315 323 313 299 290 297 297 296 306 315 318 315 295 323
347 346 347 347 347 346 345 345 345 345 345 341 338 335 319 318 325 324 324 323 328 326 323 329 333 334 336 326 310 308 312 322 312 314 315 308 307 291 295 297 304 314 311 314 297 309 319
355 356 356 357 358 358 358 357 358 360 1 359 355 4 338 332 331 336 337 334 328 325 330 329 326 344 341 320 317 319 319 329 326 327 318 310 309 303 304 300 298 307 317 309 316 325 325
3 4 6 6 6 7 13 16 16 15 11 15 17 337 334 340 326 340 341 346 336 330 297 337 314 297 317 329 339 325 324 329 330 323 325 310 315 312 314 320 348 340 345 329 326 323 324